,,PA_Meas_PMT16A,,PR_Meas_QMR101_102,,RH_Meas_QMH101,,SR_Meas_QMS101,,TA_Meas_QMH101,,GenWind,,GenWind,
time,status,PA,status,PR,status,RH,status,SR,status,TA,status,DirAvg,status,SpdAvg,
2016-07-02, 07:41:04,VALID,919.533,VALID,0,VALID,79.0091,VALID,122.59,VALID,19.4103,VALID,144,VALID,0,
2016-07-02, 07:42:04,VALID,919.565,VALID,0,VALID,78.5364,VALID,124.202,VALID,19.4493,VALID,145,VALID,0,
2016-07-02, 07:43:04,VALID,919.583,VALID,0,VALID,78.1095,VALID,125.599,VALID,19.4688,VALID,130,VALID,0.259375,
2016-07-02, 07:44:04,VALID,919.616,VALID,0,VALID,78.3992,VALID,126.888,VALID,19.5078,VALID,145,VALID,0.55,
2016-07-02, 07:45:04,VALID,919.614,VALID,0,VALID,78.4983,VALID,128.714,VALID,19.5468,VALID,140,VALID,0,
2016-07-02, 07:46:04,VALID,919.638,VALID,0,VALID,78.7651,VALID,130.756,VALID,19.5858,VALID,149,VALID,0,
2016-07-02, 07:47:04,VALID,919.597,VALID,0,VALID,78.5517,VALID,132.905,VALID,19.6653,VALID,150,VALID,0,
2016-07-02, 07:48:04,VALID,919.632,VALID,0,VALID,77.5911,VALID,134.946,VALID,19.7028,VALID,151,VALID,0,
2016-07-02, 07:49:04,VALID,919.644,VALID,0,VALID,77.2481,VALID,137.202,VALID,19.7223,VALID,151,VALID,0,
2016-07-02, 07:50:04,VALID,919.643,VALID,0,VALID,77.2862,VALID,139.888,VALID,19.7808,VALID,144,VALID,0,
2016-07-02, 07:51:04,VALID,919.661,VALID,0,VALID,77.2633,VALID,143.004,VALID,19.8588,VALID,162,VALID,0,
2016-07-02, 07:52:04,VALID,919.678,VALID,0,VALID,77.0651,VALID,146.657,VALID,19.8978,VALID,152,VALID,0,
2016-07-02, 07:53:04,VALID,919.715,VALID,0,VALID,76.5315,VALID,150.632,VALID,19.9563,VALID,172,VALID,0,
2016-07-02, 07:54:04,VALID,919.74,VALID,0,VALID,75.7234,VALID,155.145,VALID,19.9938,VALID,170,VALID,0,
2016-07-02, 07:55:04,VALID,919.731,VALID,0,VALID,75.1898,VALID,160.517,VALID,20.0733,VALID,150,VALID,0.110156,
2016-07-02, 07:56:04,VALID,919.745,VALID,0,VALID,75.1974,VALID,166.104,VALID,20.1123,VALID,156,VALID,0,
2016-07-02, 07:57:04,VALID,919.755,VALID,0,VALID,75.6853,VALID,170.831,VALID,20.1318,VALID,172,VALID,0,
2016-07-02, 07:58:04,VALID,919.764,VALID,0,VALID,75.5176,VALID,176.956,VALID,20.1108,VALID,148,VALID,0,
2016-07-02, 07:59:04,VALID,919.778,VALID,0,VALID,75.3651,VALID,183.08,VALID,20.1123,VALID,156,VALID,0,
2016-07-02, 08:00:04,VALID,919.773,VALID,0,VALID,76.5086,VALID,187.055,VALID,20.0718,VALID,147,VALID,0,
2016-07-02, 08:01:04,VALID,919.796,VALID,0,VALID,76.4934,VALID,196.402,VALID,20.0538,VALID,162,VALID,0,
2016-07-02, 08:02:04,VALID,919.82,VALID,0,VALID,75.609,VALID,204.568,VALID,20.0538,VALID,166,VALID,0,
2016-07-02, 08:03:04,VALID,919.815,VALID,0,VALID,76.8821,VALID,235.511,VALID,20.0148,VALID,158,VALID,0,
2016-07-02, 08:04:04,VALID,919.837,VALID,0,VALID,75.3575,VALID,231.106,VALID,19.9743,VALID,149,VALID,0.618359,
2016-07-02, 08:05:04,VALID,919.821,VALID,0,VALID,77.1337,VALID,235.296,VALID,20.0148,VALID,154,VALID,0,
2016-07-02, 08:06:04,VALID,919.824,VALID,0,VALID,77.1413,VALID,222.188,VALID,20.0523,VALID,148,VALID,0,
2016-07-02, 08:07:04,VALID,919.805,VALID,0,VALID,76.1122,VALID,231.643,VALID,20.1318,VALID,148,VALID,0,
2016-07-02, 08:08:04,VALID,919.794,VALID,0,VALID,75.6853,VALID,228.85,VALID,20.1498,VALID,156,VALID,0,
2016-07-02, 08:09:04,VALID,919.752,VALID,0,VALID,74.6637,VALID,226.271,VALID,20.2293,VALID,153,VALID,0,
2016-07-02, 08:10:04,VALID,919.762,VALID,0,VALID,76.1198,VALID,212.733,VALID,20.2473,VALID,145,VALID,0,
2016-07-02, 08:11:04,VALID,919.761,VALID,0,VALID,75.0906,VALID,209.618,VALID,20.3058,VALID,147,VALID,0,
2016-07-02, 08:12:04,VALID,919.755,VALID,0,VALID,75.6929,VALID,218.428,VALID,20.2863,VALID,144,VALID,0,
2016-07-02, 08:13:04,VALID,919.777,VALID,0,VALID,75.4566,VALID,209.618,VALID,20.3043,VALID,154,VALID,0,
2016-07-02, 08:14:04,VALID,919.782,VALID,0,VALID,76.1656,VALID,261.727,VALID,20.3838,VALID,149,VALID,0,
2016-07-02, 08:15:04,VALID,919.82,VALID,0,VALID,74.9153,VALID,243.032,VALID,20.4423,VALID,133,VALID,0,
2016-07-02, 08:16:04,VALID,919.809,VALID,0,VALID,73.9319,VALID,245.181,VALID,20.4993,VALID,134,VALID,0,
2016-07-02, 08:17:04,VALID,919.832,VALID,0,VALID,74.5723,VALID,264.198,VALID,20.5578,VALID,138,VALID,0,
2016-07-02, 08:18:04,VALID,919.828,VALID,0,VALID,75.3727,VALID,238.519,VALID,20.7138,VALID,139,VALID,0,
2016-07-02, 08:19:04,VALID,919.85,VALID,0,VALID,75.7234,VALID,222.403,VALID,20.9089,VALID,139,VALID,0,
2016-07-02, 08:20:04,VALID,919.876,VALID,0,VALID,74.3664,VALID,299.438,VALID,21.0681,VALID,139,VALID,0,
2016-07-02, 08:21:04,VALID,919.88,VALID,0,VALID,73.7794,VALID,227.56,VALID,21.2226,VALID,136,VALID,0,
2016-07-02, 08:22:04,VALID,919.879,VALID,0,VALID,74.1301,VALID,218.643,VALID,21.3396,VALID,127,VALID,0,
2016-07-02, 08:23:04,VALID,919.857,VALID,0,VALID,73.9776,VALID,221.866,VALID,21.3981,VALID,125,VALID,0,
2016-07-02, 08:24:04,VALID,919.862,VALID,0,VALID,71.6144,VALID,222.833,VALID,21.4567,VALID,114,VALID,0,
2016-07-02, 08:25:04,VALID,919.855,VALID,0,VALID,71.1265,VALID,223.585,VALID,21.4567,VALID,123,VALID,0,
2016-07-02, 08:26:04,VALID,919.873,VALID,0,VALID,71.7058,VALID,230.569,VALID,21.4957,VALID,112,VALID,0.998047,
2016-07-02, 08:27:04,VALID,919.878,VALID,0,VALID,73.2,VALID,319.745,VALID,21.5347,VALID,127,VALID,0.647266,
2016-07-02, 08:28:04,VALID,919.866,VALID,0,VALID,71.8964,VALID,233.147,VALID,21.6323,VALID,113,VALID,0.7875,
2016-07-02, 08:29:04,VALID,919.89,VALID,0,VALID,71.9803,VALID,231.643,VALID,21.7298,VALID,119,VALID,0.785547,
2016-07-02, 08:30:04,VALID,919.876,VALID,0,VALID,70.5852,VALID,238.949,VALID,21.7103,VALID,143,VALID,0.0417969,
2016-07-02, 08:31:04,VALID,919.877,VALID,0,VALID,70.5547,VALID,367.556,VALID,21.6891,VALID,120,VALID,0,
2016-07-02, 08:32:04,VALID,919.888,VALID,0,VALID,71.805,VALID,314.803,VALID,21.7688,VALID,126,VALID,0,
2016-07-02, 08:33:04,VALID,919.9,VALID,0,VALID,71.1493,VALID,392.16,VALID,21.8452,VALID,130,VALID,0,
2016-07-02, 08:34:04,VALID,919.952,VALID,0,VALID,69.9753,VALID,449.319,VALID,21.9818,VALID,135,VALID,0,
2016-07-02, 08:35:04,VALID,919.964,VALID,0,VALID,69.2054,VALID,432.021,VALID,22.1167,VALID,156,VALID,0,
2016-07-02, 08:36:04,VALID,920.004,VALID,0,VALID,66.8497,VALID,435.029,VALID,22.1379,VALID,128,VALID,0,
2016-07-02, 08:37:04,VALID,920.043,VALID,0,VALID,67.8636,VALID,429.765,VALID,22.2567,VALID,142,VALID,0,
2016-07-02, 08:38:04,VALID,920.026,VALID,0,VALID,68.4888,VALID,419.021,VALID,22.294,VALID,104,VALID,0,
2016-07-02, 08:39:04,VALID,920.069,VALID,0,VALID,65.7291,VALID,418.268,VALID,22.5494,VALID,113,VALID,0,
2016-07-02, 08:40:04,VALID,920.067,VALID,0,VALID,63.8309,VALID,416.334,VALID,22.6647,VALID,117,VALID,0,
2016-07-02, 08:41:04,VALID,920.067,VALID,0,VALID,65.3784,VALID,414.186,VALID,22.6843,VALID,145,VALID,0,
2016-07-02, 08:42:04,VALID,920.069,VALID,0,VALID,66.0264,VALID,413.434,VALID,22.8209,VALID,136,VALID,0,
2016-07-02, 08:43:04,VALID,920.041,VALID,0,VALID,64.6923,VALID,412.359,VALID,22.9575,VALID,134,VALID,0,
2016-07-02, 08:44:04,VALID,920.022,VALID,0,VALID,63.8995,VALID,412.681,VALID,23.1722,VALID,134,VALID,0,
2016-07-02, 08:45:04,VALID,920.041,VALID,0,VALID,64.2273,VALID,413.326,VALID,23.4259,VALID,135,VALID,0,
2016-07-02, 08:46:04,VALID,920.034,VALID,0,VALID,63.5031,VALID,414.186,VALID,23.6211,VALID,135,VALID,0,
2016-07-02, 08:47:04,VALID,920.011,VALID,0,VALID,61.0102,VALID,415.797,VALID,23.7364,VALID,154,VALID,0,
2016-07-02, 08:48:04,VALID,920.033,VALID,0,VALID,63.9147,VALID,417.731,VALID,23.7382,VALID,154,VALID,0,
2016-07-02, 08:49:04,VALID,920.032,VALID,0,VALID,63.5869,VALID,419.235,VALID,23.8554,VALID,154,VALID,0,
2016-07-02, 08:50:04,VALID,920.017,VALID,0,VALID,64.6161,VALID,422.136,VALID,24.0683,VALID,85,VALID,0,
2016-07-02, 08:51:04,VALID,920.026,VALID,0,VALID,62.8246,VALID,423.963,VALID,24.283,VALID,85,VALID,0,
2016-07-02, 08:52:04,VALID,920.046,VALID,0,VALID,62.756,VALID,426.649,VALID,24.4783,VALID,85,VALID,0,
2016-07-02, 08:53:04,VALID,920.031,VALID,0,VALID,58.3496,VALID,428.905,VALID,24.6345,VALID,85,VALID,0,
2016-07-02, 08:54:04,VALID,920.044,VALID,0,VALID,56.7335,VALID,431.806,VALID,24.8492,VALID,85,VALID,0,
2016-07-02, 08:55:04,VALID,920.05,VALID,0,VALID,56.3294,VALID,433.955,VALID,25.1812,VALID,85,VALID,0,
2016-07-02, 08:56:04,VALID,920.076,VALID,0,VALID,55.7424,VALID,437.071,VALID,25.4565,VALID,85,VALID,0,
2016-07-02, 08:57:04,VALID,920.084,VALID,0,VALID,55.2469,VALID,439.219,VALID,25.6909,VALID,85,VALID,0,
2016-07-02, 08:58:04,VALID,920.066,VALID,0,VALID,54.3321,VALID,442.443,VALID,25.8667,VALID,85,VALID,0,
2016-07-02, 08:59:04,VALID,920.093,VALID,0,VALID,54.3245,VALID,445.129,VALID,25.9058,VALID,85,VALID,0,
2016-07-02, 09:00:04,VALID,920.079,VALID,0,VALID,53.6917,VALID,447.707,VALID,25.9058,VALID,85,VALID,0,
2016-07-02, 09:01:04,VALID,920.08,VALID,0,VALID,52.6931,VALID,450.716,VALID,25.8667,VALID,85,VALID,0,
2016-07-02, 09:02:04,VALID,920.06,VALID,0,VALID,51.2675,VALID,453.509,VALID,26.0406,VALID,85,VALID,0,
2016-07-02, 09:03:04,VALID,920.081,VALID,0,VALID,54.2101,VALID,456.195,VALID,26.0425,VALID,85,VALID,0,
2016-07-02, 09:04:04,VALID,920.1,VALID,0,VALID,54.9191,VALID,459.526,VALID,25.9429,VALID,85,VALID,0,
2016-07-02, 09:05:04,VALID,920.151,VALID,0,VALID,54.8124,VALID,461.675,VALID,25.8843,VALID,85,VALID,0,
2016-07-02, 09:06:04,VALID,920.172,VALID,0,VALID,54.9343,VALID,464.361,VALID,25.9429,VALID,85,VALID,0,
2016-07-02, 09:07:04,VALID,920.157,VALID,0,VALID,54.7056,VALID,466.402,VALID,26.0992,VALID,85,VALID,0,
2016-07-02, 09:08:04,VALID,920.182,VALID,0,VALID,54.3092,VALID,470.377,VALID,26.275,VALID,85,VALID,0,
2016-07-02, 09:09:04,VALID,920.188,VALID,0,VALID,51.6029,VALID,471.989,VALID,26.2164,VALID,85,VALID,0,
2016-07-02, 09:10:04,VALID,920.188,VALID,0,VALID,52.7922,VALID,475.105,VALID,26.1578,VALID,86,VALID,0,
2016-07-02, 09:11:04,VALID,920.175,VALID,0,VALID,52.7083,VALID,477.361,VALID,26.2339,VALID,93,VALID,0,
2016-07-02, 09:12:04,VALID,920.164,VALID,0,VALID,54.0119,VALID,479.402,VALID,26.275,VALID,85,VALID,0,
2016-07-02, 09:13:04,VALID,920.171,VALID,0,VALID,55.1325,VALID,482.518,VALID,26.3706,VALID,88,VALID,0,
2016-07-02, 09:14:04,VALID,920.172,VALID,0,VALID,54.5989,VALID,483.593,VALID,26.2164,VALID,119,VALID,0,
2016-07-02, 09:15:04,VALID,920.165,VALID,0,VALID,57.0613,VALID,486.816,VALID,26.021,VALID,121,VALID,0,
2016-07-02, 09:16:04,VALID,920.146,VALID,0,VALID,54.6523,VALID,488.213,VALID,26.0796,VALID,128,VALID,0,
2016-07-02, 09:17:04,VALID,920.167,VALID,0,VALID,54.4693,VALID,492.833,VALID,26.2379,VALID,128,VALID,0,
2016-07-02, 09:18:04,VALID,920.146,VALID,0,VALID,53.8899,VALID,494.659,VALID,26.1187,VALID,128,VALID,0,
2016-07-02, 09:19:04,VALID,920.138,VALID,0,VALID,55.2469,VALID,497.238,VALID,25.9234,VALID,128,VALID,0,
2016-07-02, 09:20:04,VALID,920.144,VALID,0,VALID,55.5595,VALID,499.709,VALID,25.8648,VALID,128,VALID,0,
2016-07-02, 09:21:04,VALID,920.135,VALID,0,VALID,57.168,VALID,503.469,VALID,25.9429,VALID,127,VALID,0,
2016-07-02, 09:22:04,VALID,920.155,VALID,0,VALID,55.9025,VALID,506.37,VALID,26.0386,VALID,117,VALID,0,
2016-07-02, 09:23:04,VALID,920.145,VALID,0,VALID,54.4464,VALID,507.445,VALID,26.275,VALID,102,VALID,0,
2016-07-02, 09:24:04,VALID,920.131,VALID,0,VALID,53.6536,VALID,511.098,VALID,26.4097,VALID,102,VALID,0,
2016-07-02, 09:25:04,VALID,920.141,VALID,0,VALID,57.8998,VALID,514.106,VALID,26.6852,VALID,102,VALID,0,
2016-07-02, 09:26:04,VALID,920.128,VALID,0,VALID,58.0218,VALID,515.61,VALID,26.6246,VALID,102,VALID,0,
2016-07-02, 09:27:04,VALID,920.114,VALID,0,VALID,59.7676,VALID,518.189,VALID,26.2534,VALID,102,VALID,0,
2016-07-02, 09:28:04,VALID,920.123,VALID,0,VALID,60.9492,VALID,520.015,VALID,26.0796,VALID,102,VALID,0,
2016-07-02, 09:29:04,VALID,920.115,VALID,0,VALID,61.2923,VALID,522.594,VALID,26.0581,VALID,64,VALID,0,
2016-07-02, 09:30:04,VALID,920.099,VALID,0,VALID,57.9761,VALID,525.817,VALID,26.0581,VALID,15,VALID,0.0417969,
2016-07-02, 09:31:04,VALID,920.098,VALID,0,VALID,58.7003,VALID,530.544,VALID,25.9214,VALID,7,VALID,0,
2016-07-02, 09:32:04,VALID,920.126,VALID,0,VALID,61.6734,VALID,532.049,VALID,25.7847,VALID,19,VALID,0,
2016-07-02, 09:33:04,VALID,920.103,VALID,0,VALID,62.1003,VALID,534.842,VALID,25.7847,VALID,357,VALID,0,
2016-07-02, 09:34:04,VALID,920.108,VALID,0,VALID,60.9035,VALID,537.206,VALID,25.7651,VALID,355,VALID,0,
2016-07-02, 09:35:04,VALID,920.107,VALID,0,VALID,60.7891,VALID,539.784,VALID,25.7241,VALID,16,VALID,0.103906,
2016-07-02, 09:36:04,VALID,920.083,VALID,0,VALID,61.6811,VALID,542.363,VALID,25.7261,VALID,339,VALID,0,
2016-07-02, 09:37:04,VALID,920.105,VALID,0,VALID,62.4358,VALID,545.156,VALID,25.7456,VALID,34,VALID,0.218359,
2016-07-02, 09:38:04,VALID,920.078,VALID,0,VALID,61.8183,VALID,548.272,VALID,25.9019,VALID,43,VALID,0,
2016-07-02, 09:39:04,VALID,920.065,VALID,0,VALID,60.286,VALID,551.173,VALID,26.0366,VALID,353,VALID,0,
2016-07-02, 09:40:04,VALID,920.073,VALID,0,VALID,56.9164,VALID,552.677,VALID,26.1167,VALID,328,VALID,0,
2016-07-02, 09:41:04,VALID,920.068,VALID,0,VALID,57.694,VALID,556.438,VALID,25.978,INVALID,360,VALID,0,
2016-07-02, 09:42:04,VALID,920.052,VALID,0,VALID,58.6012,VALID,558.049,VALID,25.9214,INVALID,360,VALID,0,
2016-07-02, 09:43:04,VALID,920.065,VALID,0,VALID,60.3851,VALID,561.165,VALID,25.9019,VALID,337,VALID,0,
2016-07-02, 09:44:04,VALID,920.032,VALID,0,VALID,59.6456,VALID,563.207,VALID,26.019,VALID,337,VALID,0,
2016-07-02, 09:45:04,VALID,920.042,VALID,0,VALID,58.6393,VALID,566.43,VALID,26.1342,VALID,339,VALID,0,
2016-07-02, 09:46:04,VALID,920.015,VALID,0,VALID,55.994,VALID,568.471,VALID,26.2534,VALID,1,VALID,0,
2016-07-02, 09:47:04,VALID,920.045,VALID,0,VALID,56.2227,VALID,570.727,VALID,26.4077,VALID,20,VALID,0,
2016-07-02, 09:48:04,VALID,920.021,VALID,0,VALID,48.8585,VALID,573.951,VALID,26.6226,VALID,7,VALID,0,
2016-07-02, 09:49:04,VALID,920.035,VALID,0,VALID,52.3043,VALID,575.885,VALID,26.564,VALID,18,VALID,0,
2016-07-02, 09:50:04,VALID,920.026,VALID,0,VALID,50.7643,VALID,577.819,VALID,26.3491,VALID,306,VALID,0,
2016-07-02, 09:51:04,VALID,919.983,VALID,0,VALID,52.1975,VALID,581.257,VALID,26.1908,VALID,306,VALID,0,
2016-07-02, 09:52:04,VALID,919.991,VALID,0,VALID,52.7235,VALID,583.943,VALID,26.3296,VALID,334,VALID,0,
2016-07-02, 09:53:04,VALID,919.962,VALID,0,VALID,51.2522,VALID,585.984,VALID,26.4468,VALID,336,VALID,0,
2016-07-02, 09:54:04,VALID,919.931,VALID,0,VALID,53.5469,VALID,588.992,VALID,26.4858,VALID,327,VALID,0,
2016-07-02, 09:55:04,VALID,919.896,VALID,0,VALID,52.6473,VALID,590.174,VALID,26.5835,VALID,314,VALID,0,
2016-07-02, 09:56:04,VALID,919.904,VALID,0,VALID,54.0805,VALID,593.505,VALID,26.6812,VALID,305,VALID,0,
2016-07-02, 09:57:04,VALID,919.884,VALID,0,VALID,53.402,VALID,595.331,VALID,26.7007,VALID,332,VALID,0,
2016-07-02, 09:58:04,VALID,919.89,VALID,0,VALID,51.7935,VALID,596.621,VALID,26.8179,VALID,24,VALID,0,
2016-07-02, 09:59:04,VALID,919.895,VALID,0,VALID,52.8913,VALID,600.059,VALID,27.0328,VALID,24,VALID,0,
2016-07-02, 10:00:04,VALID,919.852,VALID,0,VALID,51.9002,VALID,603.175,VALID,27.2672,VALID,24,VALID,0,
2016-07-02, 10:01:04,VALID,919.859,VALID,0,VALID,49.1253,VALID,605.216,VALID,27.3063,VALID,296,VALID,0,
2016-07-02, 10:02:04,VALID,919.82,VALID,0,VALID,51.4886,VALID,607.15,VALID,27.2261,VALID,329,VALID,0,
2016-07-02, 10:03:04,VALID,919.842,VALID,0,VALID,51.9993,VALID,609.621,VALID,27.3258,VALID,325,VALID,0,
2016-07-02, 10:04:04,VALID,919.788,VALID,0,VALID,50.3069,VALID,611.448,VALID,27.4235,VALID,277,VALID,0,
2016-07-02, 10:05:04,VALID,919.786,VALID,0,VALID,47.3872,VALID,614.563,VALID,27.15,VALID,238,VALID,0,
2016-07-02, 10:06:04,VALID,919.791,VALID,0,VALID,47.1432,VALID,615.745,VALID,26.9135,VALID,304,VALID,0,
2016-07-02, 10:07:04,VALID,919.765,VALID,0,VALID,49.9715,VALID,618.002,VALID,26.7398,VALID,294,VALID,0,
2016-07-02, 10:08:04,VALID,919.766,VALID,0,VALID,50.4365,VALID,620.902,VALID,26.7593,VALID,294,VALID,0,
2016-07-02, 10:09:04,VALID,919.742,VALID,0,VALID,49.0491,VALID,621.762,VALID,26.9526,VALID,319,VALID,0,
2016-07-02, 10:10:04,VALID,919.722,VALID,0,VALID,48.0656,VALID,624.448,VALID,27.1891,VALID,312,VALID,0,
2016-07-02, 10:11:04,VALID,919.715,VALID,0,VALID,48.5078,VALID,627.027,VALID,27.2477,VALID,1,VALID,0,
2016-07-02, 10:12:04,VALID,919.713,VALID,0,VALID,48.3172,VALID,629.283,VALID,27.2672,VALID,37,VALID,0,
2016-07-02, 10:13:04,VALID,919.715,VALID,0,VALID,47.5396,VALID,630.894,VALID,27.3649,VALID,331,VALID,0,
2016-07-02, 10:14:04,VALID,919.71,VALID,0,VALID,50.406,VALID,632.614,VALID,27.2086,VALID,20,VALID,0,
2016-07-02, 10:15:04,VALID,919.683,VALID,0,VALID,49.5903,VALID,635.514,VALID,27.1695,VALID,29,VALID,0,
2016-07-02, 10:16:04,VALID,919.663,VALID,0,VALID,49.941,VALID,638.953,VALID,27.2868,VALID,36,VALID,0,
2016-07-02, 10:17:04,VALID,919.663,VALID,0,VALID,47.9208,VALID,640.457,VALID,27.4235,VALID,355,VALID,0,
2016-07-02, 10:18:04,VALID,919.634,VALID,0,VALID,46.1827,VALID,642.068,VALID,27.4235,VALID,15,VALID,0,
2016-07-02, 10:19:04,VALID,919.653,VALID,0,VALID,49.171,VALID,642.928,VALID,27.3454,VALID,9,VALID,0,
2016-07-02, 10:20:04,VALID,919.645,VALID,0,VALID,49.8876,VALID,645.936,VALID,27.3844,VALID,25,VALID,0,
2016-07-02, 10:21:04,VALID,919.629,VALID,0,VALID,46.5791,VALID,647.978,VALID,27.5017,VALID,10,VALID,0.221094,
2016-07-02, 10:22:04,VALID,919.612,VALID,0,VALID,48.0733,VALID,650.878,VALID,27.5994,VALID,24,VALID,0,
2016-07-02, 10:23:04,VALID,919.612,VALID,0,VALID,47.1432,VALID,651.416,VALID,27.6971,VALID,26,VALID,0,
2016-07-02, 10:24:04,VALID,919.608,VALID,0,VALID,47.8217,VALID,654.639,VALID,27.8729,VALID,21,VALID,0,
2016-07-02, 10:25:04,VALID,919.593,VALID,0,VALID,45.4356,VALID,656.465,VALID,27.8339,VALID,352,VALID,0,
2016-07-02, 10:26:04,VALID,919.591,VALID,0,VALID,46.3732,VALID,657.755,VALID,27.7362,VALID,8,VALID,0,
2016-07-02, 10:27:04,VALID,919.563,VALID,0,VALID,46.7087,VALID,661.085,VALID,27.6971,VALID,6,VALID,0,
2016-07-02, 10:28:04,VALID,919.531,VALID,0,VALID,45.8015,VALID,661.73,VALID,27.658,VALID,354,VALID,0,
2016-07-02, 10:29:04,VALID,919.546,VALID,0,VALID,48.706,VALID,662.697,VALID,27.5798,VALID,27,VALID,0,
2016-07-02, 10:30:04,VALID,919.557,VALID,0,VALID,48.767,VALID,664.846,VALID,27.6971,VALID,8,VALID,0,
2016-07-02, 10:31:04,VALID,919.519,VALID,0,VALID,47.4024,VALID,665.92,VALID,27.8729,VALID,11,VALID,0,
2016-07-02, 10:32:04,VALID,919.48,VALID,0,VALID,46.175,VALID,667.747,VALID,27.8925,VALID,19,VALID,0.00429688,
2016-07-02, 10:33:04,VALID,919.52,VALID,0,VALID,47.2499,VALID,669.896,VALID,27.8729,VALID,2,VALID,0.168359,
2016-07-02, 10:34:04,VALID,919.493,VALID,0,VALID,45.6719,VALID,671.722,VALID,27.8729,VALID,353,VALID,0,
2016-07-02, 10:35:04,VALID,919.527,VALID,0,VALID,47.8827,VALID,673.011,VALID,28.0097,VALID,327,VALID,0,
2016-07-02, 10:36:04,VALID,919.486,VALID,0,VALID,45.3974,VALID,675.697,VALID,28.0097,VALID,14,VALID,0,
2016-07-02, 10:37:04,VALID,919.485,VALID,0,VALID,45.7329,VALID,675.912,VALID,27.8925,VALID,32,VALID,0.376563,
2016-07-02, 10:38:04,VALID,919.463,VALID,0,VALID,47.8141,VALID,678.276,VALID,27.9511,VALID,48,VALID,0,
2016-07-02, 10:39:04,VALID,919.463,VALID,0,VALID,44.7113,VALID,680.317,VALID,27.8729,VALID,286,VALID,0,
2016-07-02, 10:40:04,VALID,919.433,VALID,0,VALID,45.7176,VALID,681.929,VALID,27.8925,VALID,8,VALID,0.388672,
2016-07-02, 10:41:04,VALID,919.399,VALID,0,VALID,48.6069,VALID,684.4,VALID,27.8143,VALID,5,VALID,0,
2016-07-02, 10:42:04,VALID,919.402,VALID,0,VALID,47.8751,VALID,686.227,VALID,27.8925,VALID,289,VALID,0,
2016-07-02, 10:43:04,VALID,919.399,VALID,0,VALID,45.2526,VALID,687.086,VALID,27.9706,VALID,325,VALID,0.0121094,
2016-07-02, 10:44:04,VALID,919.362,VALID,0,VALID,46.6934,VALID,689.45,VALID,27.8339,VALID,4,VALID,0,
2016-07-02, 10:45:04,VALID,919.327,VALID,0,VALID,46.8154,VALID,691.706,VALID,27.912,VALID,17,VALID,0,
2016-07-02, 10:46:04,VALID,919.349,VALID,0,VALID,46.4266,VALID,693.103,VALID,27.9685,VALID,32,VALID,0,
2016-07-02, 10:47:04,VALID,919.323,VALID,0,VALID,47.7988,VALID,694.285,VALID,28.1053,VALID,34,VALID,0,
2016-07-02, 10:48:04,VALID,919.316,VALID,0,VALID,46.8535,VALID,696.971,VALID,28.3419,VALID,5,VALID,0,
2016-07-02, 10:49:04,VALID,919.288,VALID,0,VALID,44.7876,VALID,698.475,VALID,28.4375,VALID,359,VALID,0,
2016-07-02, 10:50:04,VALID,919.29,VALID,0,VALID,45.9463,VALID,700.624,VALID,28.3615,VALID,20,VALID,0,
2016-07-02, 10:51:04,VALID,919.316,VALID,0,VALID,45.1992,VALID,701.268,VALID,28.4006,VALID,357,VALID,0,
2016-07-02, 10:52:04,VALID,919.307,VALID,0,VALID,45.9768,VALID,703.202,VALID,28.4592,VALID,29,VALID,0,
2016-07-02, 10:53:04,VALID,919.323,VALID,0,VALID,46.4342,VALID,704.277,VALID,28.596,VALID,33,VALID,0,
2016-07-02, 10:54:04,VALID,919.297,VALID,0,VALID,44.1243,VALID,706.211,VALID,28.672,VALID,287,VALID,0,
2016-07-02, 10:55:04,VALID,919.296,VALID,0,VALID,48.2181,VALID,707.5,VALID,28.6938,VALID,359,VALID,0,
2016-07-02, 10:56:04,VALID,919.266,VALID,0,VALID,46.7697,VALID,707.5,VALID,28.5569,VALID,22,VALID,0.613281,
2016-07-02, 10:57:04,VALID,919.291,VALID,0,VALID,45.9006,VALID,709.864,VALID,28.4592,VALID,331,VALID,0,
2016-07-02, 10:58:04,VALID,919.253,VALID,0,VALID,46.48,VALID,712.013,VALID,28.1835,VALID,13,VALID,0.00078125,
2016-07-02, 10:59:04,VALID,919.249,VALID,0,VALID,48.2715,VALID,714.054,VALID,28.127,VALID,45,VALID,0,
2016-07-02, 11:00:04,VALID,919.264,VALID,0,VALID,45.1459,VALID,715.451,VALID,28.2833,VALID,328,VALID,0,
2016-07-02, 11:01:04,VALID,919.228,VALID,0,VALID,47.1127,VALID,717.17,VALID,28.1856,VALID,340,VALID,0,
2016-07-02, 11:02:04,VALID,919.227,VALID,0,VALID,49.8724,VALID,718.674,VALID,28.1835,VALID,11,VALID,0,
2016-07-02, 11:03:04,VALID,919.232,VALID,0,VALID,45.4432,VALID,719.426,VALID,28.3007,VALID,340,VALID,0,
2016-07-02, 11:04:04,VALID,919.237,VALID,0,VALID,47.3185,VALID,721.682,VALID,28.3789,VALID,13,VALID,0.128906,
2016-07-02, 11:05:04,VALID,919.188,VALID,0,VALID,46.9221,VALID,723.186,VALID,28.3398,VALID,18,VALID,2.21836,
2016-07-02, 11:06:04,VALID,919.188,VALID,0,VALID,48.0504,VALID,726.195,VALID,28.3029,VALID,1,VALID,1.26133,
2016-07-02, 11:07:04,VALID,919.21,VALID,0,VALID,47.7988,VALID,728.021,VALID,28.2225,VALID,12,VALID,0.190234,
2016-07-02, 11:08:04,VALID,919.172,VALID,0,VALID,47.5244,VALID,730.17,VALID,28.3029,VALID,21,VALID,0,
2016-07-02, 11:09:04,VALID,919.149,VALID,0,VALID,47.349,VALID,733.071,VALID,28.3789,VALID,3,VALID,1.79336,
2016-07-02, 11:10:04,VALID,919.153,VALID,0,VALID,48.7517,VALID,735.005,VALID,28.3789,VALID,354,VALID,0,
2016-07-02, 11:11:04,VALID,919.159,VALID,0,VALID,47.6235,VALID,739.088,VALID,28.418,VALID,1,VALID,0,
2016-07-02, 11:12:04,VALID,919.185,VALID,0,VALID,47.593,VALID,748.865,VALID,28.4397,VALID,31,VALID,0,
2016-07-02, 11:13:04,VALID,919.151,VALID,0,VALID,45.7557,VALID,705.781,VALID,28.418,VALID,18,VALID,0,
2016-07-02, 11:14:04,VALID,919.133,VALID,0,VALID,45.8396,VALID,700.194,VALID,28.4592,VALID,321,VALID,0,
2016-07-02, 11:15:04,VALID,919.164,VALID,0,VALID,48.2791,VALID,761.113,VALID,28.5374,VALID,360,VALID,0,
2016-07-02, 11:16:04,VALID,919.144,VALID,0,VALID,47.288,VALID,761.221,VALID,28.596,VALID,356,VALID,0,
2016-07-02, 11:17:04,VALID,919.098,VALID,0,VALID,45.5499,VALID,697.078,VALID,28.596,VALID,22,VALID,0,
2016-07-02, 11:18:04,VALID,919.095,VALID,0,VALID,46.7163,VALID,768.419,VALID,28.6134,VALID,99,VALID,0,
2016-07-02, 11:19:04,VALID,919.065,VALID,0,VALID,46.9374,VALID,771.32,VALID,28.6329,VALID,34,VALID,0,
2016-07-02, 11:20:04,VALID,919.075,VALID,0,VALID,47.1127,VALID,754.022,VALID,28.672,VALID,358,VALID,0,
2016-07-02, 11:21:04,VALID,919.041,VALID,0,VALID,48.3553,VALID,778.626,VALID,28.672,VALID,32,VALID,0,
2016-07-02, 11:22:04,VALID,919.069,VALID,0,VALID,47.1051,VALID,781.205,VALID,28.7502,VALID,4,VALID,0,
2016-07-02, 11:23:04,VALID,919.039,VALID,0,VALID,47.1432,VALID,774.543,VALID,28.8697,VALID,40,VALID,0,
2016-07-02, 11:24:04,VALID,919.012,VALID,0,VALID,46.1827,VALID,739.732,VALID,29.1216,VALID,29,VALID,0,
2016-07-02, 11:25:04,VALID,919.054,VALID,0,VALID,44.071,VALID,689.88,VALID,29.1998,VALID,333,VALID,0,
2016-07-02, 11:26:04,VALID,919.032,VALID,0,VALID,46.1903,VALID,775.94,VALID,29.2215,VALID,17,VALID,0,